Weather History for Marion-Critt Cnty AP, Marion,, KY

Change the Weather History Date:

Tuesday, December 17, 2013

  Actual Average (KPAH) Record (KPAH)
Temperature  
Mean Temperature 36 °F 37 °F  
Max Temperature 43 °F 46 °F 66 °F (1984)
Min Temperature 27 °F 28 °F 6 °F (1989)
Degree Days  
Heating Degree Days 30 28  
Month to date heating degree days 442  
Since 1 July heating degree days 1219  
Cooling Degree Days 0 0  
Month to date cooling degree days 0  
Year to date cooling degree days 1542  
Moisture  
Dew Point 29 °F    
Average Humidity 78    
Maximum Humidity 98    
Minimum Humidity 53    
Precipitation  
Precipitation 0.00 in 0.15 in 2.70 in (2001)
Month to date precipitation 2.62  
Year to date precipitation 47.11  
Snow  
Snow 0.00 in 0.10 in 1.00 in (1951)
Month to date snowfall 1.0  
Since 1 July snowfall 1.1  
Snow Depth -    
Sea Level Pressure  
Sea Level Pressure 30.17 in    
Wind  
Wind Speed 6 mph (WNW)    
Max Wind Speed 12 mph    
Max Gust Speed 20 mph    
Visibility 8 miles    
Events      
T = Trace of Precipitation, MM = Missing Value Source: NWS Daily Summary

Daily Weather History Graph

Daily Weather History Graph

Search for Another Location

Airport:

Trip Planner

Search our weather history database for the weather conditions in past years. The results will help you decide how hot, cold, wet, or windy it might be!

Date:

Astronomy

Dec. 17, 2013 Rise Set
Actual Time 7:00 AM CST 4:36 PM CST
Civil Twilight 6:31 AM CST 5:05 PM CST
Nautical Twilight 5:58 AM CST 5:38 PM CST
Astronomical Twilight 5:27 AM CST 6:10 PM CST
Moon 5:14 PM CST (12/17) 6:58 AM CST (12/17)
Length of Visible Light 10h 34m
Length of Day
9h 35m
Full, 100% of the Moon is Illuminated
Dec 17
Full
Dec 25
Last Quarter
Jan 1
New
Jan 7
First Quarter
Jan 15
Full

Hourly Weather History & Observations

Time (CST) Temp. Windchill Dew Point Humidity Pressure Visibility Wind Dir Wind Speed Gust Speed Precip Events Conditions
12:15 AM 39.4 °F 33.8 °F 35.6 °F 86% 30.06 in 10.0 mi SW 8.1 mph - N/A   Clear
12:35 AM 40.1 °F 33.6 °F 35.8 °F 85% 30.06 in 10.0 mi WSW 10.4 mph - N/A   Clear
12:55 AM 40.1 °F 34.7 °F 35.8 °F 85% 30.07 in 10.0 mi WSW 8.1 mph - N/A   Clear
1:15 AM 40.1 °F 34.7 °F 36.0 °F 85% 30.08 in 10.0 mi West 8.1 mph - N/A   Clear
1:35 AM 40.1 °F 35.3 °F 36.1 °F 86% 30.09 in 10.0 mi West 6.9 mph - N/A   Clear
1:55 AM 39.2 °F 35.0 °F 35.8 °F 88% 30.09 in 10.0 mi West 5.8 mph - N/A   Clear
2:15 AM 37.9 °F - 35.2 °F 90% 30.09 in 10.0 mi Calm Calm - N/A   Clear
2:35 AM 37.4 °F - 35.6 °F 93% 30.09 in 10.0 mi Calm Calm - N/A   Clear
2:55 AM 36.9 °F - 35.2 °F 94% 30.09 in 10.0 mi Calm Calm - N/A   Clear
3:15 AM 35.6 °F - 34.7 °F 97% 30.09 in 10.0 mi Calm Calm - N/A   Clear
3:35 AM 35.2 °F 31.2 °F 34.5 °F 97% 30.11 in 10.0 mi NW 4.6 mph - N/A   Clear
3:55 AM 34.7 °F 31.8 °F 33.4 °F 95% 30.10 in 10.0 mi NNW 3.5 mph - N/A   Clear
4:15 AM 34.7 °F 29.6 °F 32.9 °F 93% 30.11 in 10.0 mi NW 5.8 mph - N/A   Clear
4:35 AM 33.4 °F 26.6 °F 32.2 °F 95% 30.11 in 7.0 mi NNW 8.1 mph - N/A   Mostly Cloudy
4:55 AM 32.0 °F 25.6 °F 31.5 °F 98% 30.12 in 7.0 mi North 6.9 mph - N/A   Mostly Cloudy
5:15 AM 31.1 °F 22.4 °F 29.3 °F 93% 30.13 in 5.0 mi North 10.4 mph - N/A   Clear
5:35 AM 30.2 °F 24.3 °F 28.2 °F 92% 30.13 in 5.0 mi North 5.8 mph - N/A   Clear
5:55 AM 29.7 °F 24.7 °F 28.0 °F 94% 30.14 in 5.0 mi North 4.6 mph - N/A   Mostly Cloudy
6:15 AM 29.3 °F - 28.0 °F 95% 30.12 in 4.0 mi Calm Calm - N/A   Overcast
6:35 AM 28.9 °F - 27.9 °F 96% 30.13 in 4.0 mi Calm Calm - N/A   Mostly Cloudy
6:55 AM 29.1 °F 25.4 °F 28.2 °F 96% 30.15 in 4.0 mi North 3.5 mph - N/A   Overcast
7:15 AM 28.9 °F - 28.0 °F 96% 30.14 in 2.5 mi Calm Calm - N/A   Overcast
7:35 AM 29.1 °F - 28.2 °F 96% 30.13 in 2.5 mi Calm Calm - N/A   Overcast
7:55 AM 29.3 °F - 28.4 °F 96% 30.14 in 2.5 mi Calm Calm - N/A   Overcast
8:15 AM 30.0 °F 26.5 °F 28.6 °F 94% 30.16 in 3.0 mi WNW 3.5 mph - N/A   Overcast
8:35 AM 30.6 °F 25.8 °F 29.1 °F 94% 30.16 in 3.0 mi West 4.6 mph - N/A   Overcast
8:55 AM 30.9 °F 26.2 °F 28.9 °F 92% 30.17 in 4.0 mi WNW 4.6 mph - N/A   Mostly Cloudy
9:15 AM 31.5 °F 26.8 °F 29.3 °F 92% 30.16 in 4.0 mi WSW 4.6 mph - N/A   Mostly Cloudy
9:35 AM 30.9 °F 27.5 °F 28.6 °F 91% 30.18 in 4.0 mi NW 3.5 mph - N/A   Scattered Clouds
9:55 AM 32.2 °F 27.7 °F 30.0 °F 92% 30.17 in 4.0 mi NW 4.6 mph - N/A   Scattered Clouds
10:15 AM 33.1 °F 28.7 °F 29.7 °F 87% 30.17 in 4.0 mi NW 4.6 mph - N/A   Scattered Clouds
10:35 AM 34.9 °F 29.9 °F 30.0 °F 82% 30.16 in 5.0 mi WNW 5.8 mph - N/A   Haze
10:55 AM 35.8 °F 30.9 °F 30.2 °F 80% 30.16 in 5.0 mi WNW 5.8 mph - N/A   Haze
11:15 AM 37.0 °F 32.4 °F 30.9 °F 79% 30.15 in 7.0 mi WNW 5.8 mph - N/A   Clear
11:35 AM 37.9 °F 32.7 °F 30.7 °F 75% 30.15 in 7.0 mi WNW 6.9 mph - N/A   Scattered Clouds
11:55 AM 37.4 °F 32.1 °F 30.9 °F 77% 30.15 in 7.0 mi West 6.9 mph - N/A   Mostly Cloudy
12:15 PM 38.3 °F 32.5 °F 30.7 °F 74% 30.15 in 7.0 mi NW 8.1 mph - N/A   Scattered Clouds
12:35 PM 39.4 °F 32.7 °F 31.1 °F 72% 30.15 in 10.0 mi NW 10.4 mph - N/A   Mostly Cloudy
12:55 PM 39.9 °F 34.5 °F 31.3 °F 71% 30.15 in 10.0 mi NW 8.1 mph - N/A   Overcast
1:15 PM 40.6 °F 34.8 °F 30.6 °F 67% 30.14 in 10.0 mi WNW 9.2 mph - N/A   Scattered Clouds
1:35 PM 41.5 °F 35.9 °F 30.4 °F 65% 30.15 in 10.0 mi WNW 9.2 mph 16.1 mph N/A   Clear
1:55 PM 41.9 °F 36.9 °F 29.3 °F 61% 30.16 in 10.0 mi WNW 8.1 mph 19.6 mph N/A   Clear
2:15 PM 42.6 °F 38.4 °F 30.0 °F 61% 30.16 in 10.0 mi NW 6.9 mph - N/A   Clear
2:35 PM 42.8 °F 39.3 °F 29.3 °F 59% 30.16 in 10.0 mi WNW 5.8 mph - N/A   Clear
2:55 PM 43.3 °F 38.1 °F 27.1 °F 53% 30.17 in 10.0 mi NW 9.2 mph - N/A   Clear
3:15 PM 42.8 °F 37.5 °F 26.6 °F 53% 30.18 in 10.0 mi WNW 9.2 mph - N/A   Clear
3:35 PM 41.9 °F 35.4 °F 26.1 °F 53% 30.18 in 10.0 mi NW 11.5 mph 18.4 mph N/A   Clear
3:55 PM 41.4 °F 35.7 °F 26.2 °F 55% 30.19 in 10.0 mi NW 9.2 mph 16.1 mph N/A   Clear
4:15 PM 40.5 °F 34.1 °F 26.2 °F 57% 30.20 in 10.0 mi NW 10.4 mph - N/A   Clear
4:35 PM 39.6 °F 35.4 °F 26.4 °F 59% 30.20 in 10.0 mi NW 5.8 mph - N/A   Clear
4:55 PM 39.0 °F 34.8 °F 26.6 °F 61% 30.21 in 10.0 mi NW 5.8 mph - N/A   Clear
5:15 PM 37.8 °F - 26.6 °F 64% 30.21 in 10.0 mi Calm Calm - N/A   Clear
5:35 PM 37.0 °F 34.5 °F 26.4 °F 65% 30.21 in 10.0 mi NW 3.5 mph - N/A   Clear
5:55 PM 37.2 °F 32.6 °F 26.2 °F 65% 30.21 in 10.0 mi WNW 5.8 mph - N/A   Clear
6:15 PM 36.9 °F 31.4 °F 26.6 °F 66% 30.21 in 10.0 mi West 6.9 mph - N/A   Clear
6:35 PM 36.5 °F 31.0 °F 26.4 °F 67% 30.22 in 10.0 mi West 6.9 mph - N/A   Clear
6:55 PM 36.1 °F 30.6 °F 26.2 °F 67% 30.23 in 10.0 mi West 6.9 mph - N/A   Clear
7:15 PM 36.1 °F 30.6 °F 26.1 °F 67% 30.24 in 10.0 mi WNW 6.9 mph - N/A   Clear
7:35 PM 35.8 °F 30.1 °F 25.7 °F 67% 30.24 in 10.0 mi WNW 6.9 mph - N/A   Clear
7:55 PM 35.6 °F 31.7 °F 25.9 °F 68% 30.25 in 10.0 mi WNW 4.6 mph - N/A   Clear
8:15 PM 34.9 °F 30.8 °F 25.7 °F 69% 30.25 in 10.0 mi WNW 4.6 mph - N/A   Clear
8:35 PM 34.7 °F 30.6 °F 25.7 °F 70% 30.26 in 10.0 mi WNW 4.6 mph - N/A   Clear
8:55 PM 34.7 °F 30.6 °F 25.2 °F 68% 30.26 in 10.0 mi NW 4.6 mph - N/A   Clear
9:15 PM 34.7 °F 30.6 °F 23.9 °F 65% 30.26 in 10.0 mi NW 4.6 mph - N/A   Clear
9:35 PM 34.7 °F 30.6 °F 23.7 °F 64% 30.27 in 10.0 mi WNW 4.6 mph - N/A   Clear
9:55 PM 32.7 °F - 23.9 °F 70% 30.27 in 10.0 mi Calm Calm - N/A   Clear
10:15 PM 31.8 °F 28.5 °F 23.7 °F 72% 30.27 in 10.0 mi West 3.5 mph - N/A   Clear
10:35 PM 31.8 °F 28.5 °F 23.0 °F 70% 30.27 in 10.0 mi WSW 3.5 mph - N/A   Clear
10:55 PM 32.0 °F 26.4 °F 22.6 °F 68% 30.27 in 10.0 mi West 5.8 mph - N/A   Clear
11:15 PM 32.0 °F 26.4 °F 22.1 °F 67% 30.27 in 10.0 mi West 5.8 mph - N/A   Clear
11:35 PM 31.1 °F 27.7 °F 21.9 °F 69% 30.27 in 10.0 mi WSW 3.5 mph - N/A   Clear
11:55 PM 27.7 °F 21.3 °F 23.0 °F 83% 30.27 in 10.0 mi WSW 5.8 mph - N/A   Clear